Location: Eichenhausen
(50.3245°N, 10.3042°E)
Time: 21:45:19
(UTC+00:00)

Daily predictions for brighter satellites

Satellite Brightness Start Highest point End
(mag) Time Altitude Azimuth Time Altitude Azimuth Time Altitude Azimuth
Cosmos 1864 Rocket 4.4 16:56:11 10° N 17:02:19 71° ENE 17:08:27 10° SSE
USA 267 3.4 16:55:48 10° ENE 17:02:23 86° NNW 17:08:56 10° WSW
Cosmos 1356 Rocket 3.8 16:58:53 10° N 17:02:31 36° ENE 17:06:11 10° SE
Cosmos 1607 4.5 16:57:09 10° S 17:02:45 39° ESE 17:08:26 10° NE
Cosmos 2297 Rocket 3.6 17:02:21 10° SE 17:05:49 17° E 17:09:17 10° ENE
USA 290 3.0 17:03:28 10° S 17:06:20 31° ESE 17:09:13 10° NE
Cosmos 1441 Rocket 3.1 17:03:06 10° SSW 17:06:27 75° WNW 17:09:48 10° N
In-Cosmos 22 Rocket 4.2 17:01:26 10° S 17:06:55 83° E 17:12:35 10° NNE
Cosmos 841 Rocket 4.3 17:02:49 10° SW 17:07:51 52° WNW 17:12:55 10° NNE
Cosmos 1814 Rocket 4.3 17:04:21 10° S 17:09:23 47° ESE 17:14:25 10° NNE
SAR-Lupe-5 4.2 17:06:52 10° NNE 17:09:25 57° ESE 17:11:51 10° S
ATLAS 3B R/B 4.4 17:02:35 10° NW 17:09:47 43° WSW 17:16:39 10° S
SAR-Lupe-4 3.6 17:06:22 10° SSE 17:09:52 60° ENE 17:13:25 10° N
Cosmos 1125 Rocket 4.0 17:07:43 10° NNW 17:12:35 39° NE 17:17:26 10° SE
Cosmos 1455 Rocket 4.3 17:10:20 10° NNE 17:13:27 19° ENE 17:16:33 10° ESE
IRS-1C 4.4 17:08:20 10° S 17:13:38 74° WSW 17:19:00 10° NNW
Cosmos 2221 Rocket 4.5 17:16:00 10° SSE 17:19:49 28° E 17:23:40 10° NNE
YAOGAN 1 2.5 17:16:50 10° SSE 17:21:00 59° ENE 17:25:12 10° N
Cosmos 2123 Rocket 4.0 17:15:42 10° S 17:22:01 83° E 17:28:21 10° N
Okean 2 Rocket 3.3 17:18:07 10° N 17:22:23 46° ENE 17:26:36 10° SSE
Cosmos 1900 4.4 17:18:13 10° SW 17:23:20 90° SSE 17:28:25 10° NE
NOSS 3-3 (C) 4.4 17:19:03 10° S 17:23:40 34° ESE 17:29:03 10° NE
NOAA 6 4.3 17:19:10 10° SE 17:24:03 46° ENE 17:28:58 10° N
Okean 1 Rocket 3.4 17:21:38 10° N 17:25:52 44° ENE 17:30:03 10° SSE
Spot 4 Rocket 4.1 17:21:16 10° SSE 17:26:16 58° ENE 17:31:17 10° N
COSMOS 2428 2.7 17:22:21 10° NNW 17:28:07 79° ENE 17:33:51 10° SSE
Cosmos 1980 4.0 17:26:20 10° NNW 17:31:47 45° NE 17:37:11 10° SE
Sich 1 Rocket 3.8 17:27:31 10° N 17:31:56 48° ENE 17:36:21 10° SSE
ARIANE 5 R/B 3.6 17:27:59 10° S 17:32:57 49° W 17:37:54 10° NNW
Cosmos 158 Rocket 3.7 17:32:32 10° SSW 17:37:21 72° ESE 17:42:14 10° NNE
Aureole 3 Rocket 3.2 17:33:11 10° N 17:37:23 39° ENE 17:40:40 10° SE
Cosmos 2237 Rocket 2.5 17:31:56 10° NNW 17:37:25 46° NE 17:42:52 10° SE
ATLAS 5 CENTAUR R/B 2.9 17:34:53 10° NW 17:38:58 45° SW 17:43:59 10° SSE
Cosmos 192 4.3 17:34:13 10° NNW 17:39:08 88° ENE 17:44:00 10° SSE
SeaSat 1 3.7 17:35:13 10° S 17:39:52 44° WSW 17:44:35 10° NW
Cosmos 1378 Rocket 3.5 17:36:12 10° S 17:40:31 85° W 17:44:50 10° N
Resurs 01 Rocket 1.8 17:37:09 10° SE 17:41:21 46° ENE 17:45:35 10° N
ARIANE 6 FM1 Upper Stage 4.4 17:39:41 10° NNW 17:42:30 18° NNE 17:44:13 14° NE
SKYMED 2 3.6 17:38:19 10° NNE 17:42:42 89° WSW 17:47:03 10° SSW
GP-B 3.7 17:40:06 10° S 17:44:24 61° W 17:48:45 10° N
Cosmos 2219 Rocket 4.3 17:42:03 10° NW 17:46:51 30° WSW 17:51:38 10° SSW
COSMO-SKYMED 1 2.4 17:42:55 10° NNE 17:47:01 61° ESE 17:51:04 10° S
Cosmos 2228 4.1 17:45:11 10° NNE 17:48:32 23° ENE 17:49:16 22° E
Cosmos 2292 Rocket 4.2 17:47:20 10° SW 17:50:02 37° WNW 17:52:54 10° N
PSLV R/B 3.3 17:47:04 10° SSE 17:51:11 77° ENE 17:55:18 10° NNW
NOSS 3-3 (A) 3.7 17:47:14 10° SSW 17:52:18 59° SE 17:57:36 14° NE
Cosmos 2322 4.2 17:46:38 10° NW 17:52:18 65° WSW 17:57:56 10° SSE
Cosmos 1447 Rocket 4.5 17:48:01 10° S 17:54:00 59° E 18:00:01 10° NNE
USA 306 1.9 17:51:45 10° WNW 17:54:30 49° SSW 17:55:03 36° SSE
Resurs 1-3 4.1 17:50:41 10° S 17:54:56 62° WSW 17:59:14 10° NNW
Cosmos 1025 Rocket 2.9 17:54:31 10° S 17:58:49 83° E 18:03:10 10° NNE
SJ-7 4.3 17:55:17 10° S 17:58:59 76° WSW 18:02:41 10° NNW
Cosmos 2285 Rocket 4.0 17:52:48 10° NNW 17:59:17 76° ENE 18:05:40 10° SSE
SL-16 R/B 3.3 17:55:57 10° NNW 18:00:42 26° NE 18:02:27 23° ENE
Cosmos 2227 Rocket 3.5 18:00:29 10° SSE 18:03:35 20° ESE 18:03:35 20° ESE
SJ-6B 2.5 18:05:12 13° SSE 18:08:08 55° ENE 18:11:32 10° N
NOSS 3-4 (A) 3.8 18:03:12 10° NW 18:09:41 65° NE 18:15:10 20° ESE
NOSS 3-4 (C) 3.8 18:03:27 10° NW 18:09:57 64° NE 18:15:23 20° ESE
SPOT 5 3.5 18:08:20 27° ESE 18:10:02 35° ENE 18:14:36 10° N
CZ-2D R/B 4.5 18:09:07 10° S 18:12:51 46° W 18:16:43 10° NNW
Cosmos 1674 Rocket 4.3 18:10:47 10° SSW 18:15:05 55° WNW 18:19:27 10° N
Cosmos 2034 Rocket 4.5 18:10:06 10° N 18:15:43 35° ENE 18:18:04 27° ESE
Cosmos 1513 Rocket 4.4 18:11:52 10° N 18:18:08 72° ENE 18:24:28 10° SSE
Cosmos 1867 4.3 18:18:09 10° WSW 18:23:28 52° NW 18:27:56 15° NNE
CZ-4 R/B 3.0 18:28:09 19° NNE 18:28:09 19° NNE 18:29:31 10° N
ATLAS 2AS CENTAUR R/B 4.0 18:20:25 10° WNW 18:26:25 30° NNW 18:31:16 14° NE
CZ-4B R/B 4.0 18:26:45 30° NE 18:26:45 30° NE 18:31:04 10° N
Lacrosse 5 rocket 1.8 18:24:10 10° W 18:27:32 42° NNW 18:28:21 36° NNE
CZ-4B DEB 4.5 18:29:56 37° ESE 18:31:17 45° ENE 18:36:27 10° N
Meteor 1-31 Rocket 3.8 18:32:59 27° N 18:32:59 27° N 18:34:48 10° N
ADEOS 4.3 18:32:00 32° NE 18:32:00 32° NE 18:36:09 10° N
CZ-4C R/B 2.0 18:28:33 10° SW 18:32:54 69° NW 18:36:09 24° NE
IRAS Rocket 4.4 18:29:11 10° SSE 18:34:47 77° WSW 18:40:27 10° NNW
CRYOSAT 2 4.4 18:32:24 10° N 18:37:18 81° W 18:42:11 10° S
USA 267 3.7 18:41:48 28° NE 18:45:08 53° N 18:51:26 10° W
Cosmos 1464 Rocket 3.9 18:39:29 10° N 18:45:55 80° E 18:52:14 10° SSE
CSL-04 Debris 4.1 18:44:38 36° SE 18:46:51 68° ENE 18:52:16 10° N
ERS-1 Rocket 4.0 18:48:48 31° NNE 18:48:48 31° NNE 18:51:58 10° N
Cosmos 2297 Rocket 2.1 18:43:22 10° SSW 18:49:02 90° SE 18:52:38 24° NNE
CSL-04 Rocket 3.4 18:47:26 34° SSE 18:49:47 76° ENE 18:55:05 10° NNW
Cosmos 1607 4.5 18:43:49 10° WSW 18:49:50 55° NW 18:54:10 20° NNE
Cosmos 1570 Rocket 3.9 18:44:42 10° SSW 18:49:59 83° ESE 18:52:48 28° NNE
Cosmos 2344 3.9 18:44:14 10° S 18:51:12 38° ESE 18:51:12 38° ESE
Cosmos 1455 Rocket 3.8 18:47:16 10° NNW 18:51:28 52° W 18:55:38 10° S
Cosmos 1943 4.4 18:47:28 10° NNW 18:51:36 25° NNE 18:51:36 25° NNE
Cosmos 1975 Rocket 4.2 18:48:19 10° S 18:50:38 31° S 18:50:38 31° S
DNEPR-1 R/B 3.8 18:48:44 10° NW 18:53:30 76° NE 18:54:12 64° ESE
PAYLOAD B 4.1 19:05:27 68° E 19:05:45 70° ENE 19:11:21 10° NNW
Cosmos 2208 Rocket 3.8 19:01:56 10° SSW 19:07:10 84° ESE 19:07:29 78° NE
Terra 3.4 19:11:53 23° N 19:11:53 23° N 19:13:49 10° N
NOSS 3-3 (C) 4.3 19:08:50 10° WSW 19:14:10 58° NW 19:16:44 34° NNE
Resurs 01 Rocket 4.0 19:14:28 10° SW 19:17:56 23° W 19:21:26 10° NW
Cosmos 2237 Rocket 3.5 19:16:13 10° NW 19:21:22 37° WSW 19:25:52 13° S
Cosmos 44 Rocket 4.3 19:18:22 10° SW 19:21:20 37° SSW 19:21:20 37° SSW
Gblst 52 Del rocket 4.5 19:15:55 10° W 19:23:19 81° N 19:24:03 71° ENE
Cosmos 773 Rocket 4.2 19:19:19 10° SSW 19:24:33 69° WNW 19:25:06 64° NNW
Cosmos 2228 4.2 19:21:45 10° NNW 19:25:36 40° W 19:25:36 40° W
SL-16 R/B 2.6 19:39:43 10° NNW 19:44:20 59° NW 19:44:20 59° NW
SPOT 5 4.2 19:47:23 35° WSW 19:47:56 36° W 19:52:35 10° NNW
Cosmos 2227 Rocket 3.3 19:42:21 10° SW 19:45:29 35° SW 19:45:29 35° SW
CZ-4 R/B 4.4 20:03:09 11° NW 20:03:09 11° NW 20:03:16 10° NW
CZ-4B R/B 4.4 20:08:36 36° NW 20:08:36 36° NW 20:12:03 10° NNW
BREEZE-M DEB (TANK) 4.3 19:58:34 10° W 20:10:45 55° SW 20:10:45 55° SW
ATLAS 2AS CENTAUR R/B 4.1 20:13:32 10° NW 20:18:40 28° N 20:18:40 28° N
CZ-4C R/B 4.0 20:17:56 10° WNW 20:21:07 25° NW 20:21:07 25° NW
USA 267 4.1 20:29:08 45° NNW 20:29:08 45° NNW 20:33:57 10° WNW
Cosmos 2297 Rocket 4.2 20:29:22 10° W 20:33:51 23° NW 20:34:29 23° NNW
